星链-5403 (STARLINK-5403 )

导读

STARLINK-5403是美国SpaceX公司星链星座的量产型低轨互联网通信卫星,于2022年12月28日发射。它采用平板设计,搭载氪工质霍尔推进器,配备Ku/Ka波段通信载荷与光学星间链路,具备自主避撞能力。卫星运行在近地轨道,旨在提供全球宽带互联网服务,寿命末期将主动离轨再入大气层焚毁。

Basic Information
目录编号:
54862
目录名称:
STARLINK-5403
国际标识:
2022-177AU
轨道中心:
EARTH
卫星名称:
星链-5403
卫星全名:
星链-5403 (STARLINK-5403 )
卫星状态:
在轨 (已飞行1267 天)
发射日期:
2022-12-28 UTC
国别 :
美国 (US)
星等 :
--
Orbit Information
数据来源 国际轨道数据 AOE轨道数据
星历时间 2026-06-16T09:07:56+0800
1天前
查看轨道信息
2026-06-15T06:00:00+0800
2天前
查看轨道信息
半长轴 6861.216km 6861.217km
偏心率 0.000131 0.0001308
轨道倾角 43.003° 43.001°
近地点辐角 281.706° 266.553°
升交点赤经 286.086° 292.474°
平近点角 78.365° 349.273°
近地点 482.18km 482.182km
远地点 483.978km 483.978km
周期 94.267分钟 94.267分钟
每日圈数 15.275702 15.275698
Detailed Information
固有亮度:
5
最大亮度:
2.5
卫星平台:
Starlink v1.5
覆盖范围:
全球
运营商:
太空探索技术公司
运营商所在国:
美国
制造商(研发单位):
太空探索技术公司
制造商所在国:
美国
使用方式:
暂无
Satellite Introduction
星链(Starlink)计划是由太空探索技术公司(SpaceX)提出的一个巨型低轨卫星互联网星座项目,计划在2019年至2024年间在太空搭建由约1.2万颗卫星组成的“星链”网络,其中1584颗将部署在地球上空550千米处的近地轨道,并从2020年开始工作。该卫星仍在工作。
2D Orbit Map
3D Orbit Map
Orbit Altitude Analysis Chart
Orbit Inclination Analysis Chart
Orbit Comprehensive Analysis Chart
View Comprehensive Chart